Nogales, AZ

1:24 AM MST on May 25, 2017 (GMT -0700)
Nogales International

Weather History for KOLS - October, 2012

Change the Weather History Date:

Friday, October 26, 2012

  Actual Average (KFHU) Record (KFHU)
Temperature  
Mean Temperature 62 °F -  
Max Temperature 82 °F 71 °F 87 °F (2001)
Min Temperature 41 °F 49 °F 40 °F (1989)
Degree Days  
Heating Degree Days 4    
Growing Degree Days 12 (Base 50)    
Moisture  
Dew Point 18 °F    
Average Humidity 21    
Maximum Humidity 40    
Minimum Humidity 9    
Precipitation  
Precipitation 0.00 in - - ()
Sea Level Pressure  
Sea Level Pressure 29.91 in    
Wind  
Wind Speed 2 mph (WNW)    
Max Wind Speed 9 mph    
Max Gust Speed 16 mph    
Visibility 10 miles    
Events      
Averages and records for this station are not official NWS values.
T = Trace of Precipitation, MM = Missing Value Source: NWS Daily Summary

Daily Weather History Graph

Daily Weather History Graph

Search for Another Location

Airport or City:

Trip Planner

Search our weather history database for the weather conditions in past years. The results will help you decide how hot, cold, wet, or windy it might be!

Date:

Astronomy

Oct. 26, 2012 Rise Set
Actual Time 6:34 AM MST 5:39 PM MST
Civil Twilight 6:10 AM MST 6:04 PM MST
Nautical Twilight 5:41 AM MST 6:32 PM MST
Astronomical Twilight 5:13 AM MST 7:00 PM MST
Moon 3:49 PM MST (10/26) 3:43 AM MST (10/26)
Length of Visible Light 11h 54m
Length of Day
11h 04m
Waxing Gibbous, 91% of the Moon is Illuminated
Oct 26
Waxing Gibbous
Oct 29
Full
Nov 6
Last Quarter
Nov 13
New
Nov 20
First Quarter

Hourly Weather History & Observations

Time (MST) Temp. Windchill Dew Point Humidity Pressure Visibility Wind Dir Wind Speed Gust Speed Precip Events Conditions
12:54 AM 50.0 °F - 17.1 °F 27% 29.90 in 10.0 mi Calm Calm - N/A   Clear
1:54 AM 46.0 °F - 18.0 °F 33% 29.91 in 10.0 mi Calm Calm - N/A   Clear
2:54 AM 46.9 °F - 17.1 °F 30% 29.90 in 10.0 mi Calm Calm - N/A   Clear
3:54 AM 45.0 °F 43.5 °F 17.1 °F 33% 29.90 in 10.0 mi NE 3.5 mph - N/A   Clear
4:54 AM 42.1 °F - 18.0 °F 38% 29.93 in 10.0 mi Calm Calm - N/A   Clear
5:54 AM 42.8 °F - 17.6 °F 36% 30.05 in 10.0 mi Calm Calm - N/A   Clear
6:54 AM 41.0 °F 39.0 °F 18.0 °F 40% 29.97 in 10.0 mi South 3.5 mph - N/A   Clear
7:54 AM 53.1 °F - 18.0 °F 25% 29.98 in 10.0 mi Calm Calm - N/A   Clear
8:54 AM 60.1 °F - 18.0 °F 20% 29.98 in 10.0 mi SSW 3.5 mph - N/A   Clear
9:54 AM 66.9 °F - 18.0 °F 15% 29.96 in 10.0 mi Calm Calm - N/A   Clear
10:54 AM 73.9 °F - 18.0 °F 12% 29.93 in 10.0 mi SSW 3.5 mph - N/A   Clear
11:54 AM 79.0 °F - 17.1 °F 10% 29.90 in 10.0 mi Variable 3.5 mph - N/A   Clear
12:54 PM 82.0 °F - 18.0 °F 9% 29.86 in 10.0 mi WNW 9.2 mph - N/A   Clear
1:54 PM 82.9 °F - 17.1 °F 9% 29.83 in 10.0 mi West 9.2 mph 16.1 mph N/A   Clear
2:54 PM 82.9 °F - 18.0 °F 9% 29.82 in 10.0 mi North - - N/A   Clear
3:54 PM 82.9 °F - 17.1 °F 9% 29.82 in 10.0 mi North 6.9 mph - N/A   Clear
4:54 PM 79.0 °F - 17.1 °F 10% 29.83 in 10.0 mi NW 4.6 mph - N/A   Clear
5:54 PM 72.0 °F - 17.1 °F 12% 29.86 in 10.0 mi Calm Calm - N/A   Clear
6:54 PM 64.9 °F - 18.0 °F 16% 29.90 in 10.0 mi ESE 3.5 mph - N/A   Clear
7:54 PM 68.0 °F - 15.8 °F 13% 30.00 in 10.0 mi NE 6.9 mph - N/A   Clear
8:54 PM 61.0 °F - 19.0 °F 20% 29.89 in 10.0 mi South 5.8 mph - N/A   Clear
9:54 PM 60.8 °F - 19.4 °F 20% 30.03 in 10.0 mi Calm Calm - N/A   Clear
10:54 PM 53.1 °F - 21.0 °F 29% 29.88 in 10.0 mi NE 3.5 mph - N/A   Clear
11:54 PM 50.0 °F - 21.0 °F 32% 29.87 in 10.0 mi Calm Calm - N/A   Clear